OneWeb SL0326

operational
NORAD ID: 49195 Int'l Des: 2021-083 Owner: ONEWEBN Country: UK Constellation: oneweb
LEOCIRCULARPOLARONEWEB_TYPE

OneWeb SL0326について

説明を読み込み中...

リアルタイム位置

3D地球を読み込み中...

次回通過

高度履歴

Altitude vs Time

uPlot chart will show altitude changes over time

軌道要素

1 49195U 21083K 25302.48949500 .00000045 00000-0 80692-4 0 9991
2 49195 87.9227 21.2712 0001505 97.7926 262.3377 13.18685667199595
Epoch: Oct 29, 2025 • Age: 10 hours

現在のステータス

高度 1200.0 km
速度 7.25 km/s
衛星直下点 -26.55°S, 164.7°W
打ち上げ日 Sep 14, 2021
運用期間 4.1 years
タイプ internet

技術仕様

分類 Payload
質量 148.00 kg
乾燥質量 140.00 kg
総質量 148.00 kg
長さ 1.30 m
直径 1.00 m
スパン 5.00 m
形状 Trapezoid+2 pan
製造者 ONEWUS
バスタイプ ARROW
フェーズステータス In Orbit
所有者/国 ONEWEBN/UK

大規模コンステレーション

Loading constellations...